Date String (YYYY-MM-DD hh:mm:ss) UTC,Instrument flags,Ambient pressure (hPa),Sample flow (lpm),Bypass flow (lpm),Sample temperature (°C),Ambient temperature (°C),ASC tube jacket temperature (°C),LED temperature (°C),Box temperature (°C),Sample RH (%),Span deviation,Mass concentration (μg/m³),Mass concentration (μg/m³),Mass concentration (μg/m³)
DateTimeUTC,F1_M11,P_M11,Q1_M11,Q2_M11,T1_M11,T2_M11,T3_M11,T4_M11,T5_M11,U1_M11,ZSPAN_M11,X0_M11,X2_M11,X1_M11
2021-12-02 23:00:00,,0825.6,5.01,0.00,29.7,25.8,00.0,38.7,30.9,08.4,0000.0,0010.56,0002.66,0001.52
2021-12-02 23:01:00,,0825.6,4.99,0.00,29.5,25.5,00.0,38.6,30.8,08.5,0000.0,0009.88,0002.61,0001.50
2021-12-02 23:02:00,,0825.6,4.99,0.00,29.5,25.9,00.0,38.6,30.9,08.5,0000.0,0009.21,0002.63,0001.49
2021-12-02 23:03:00,,0825.6,5.00,0.00,29.4,26.4,00.0,38.5,30.9,08.6,0000.0,0009.51,0002.60,0001.47
2021-12-02 23:04:00,,0825.6,5.01,0.00,29.4,26.9,00.0,38.5,31.0,08.6,0000.0,0010.14,0002.61,0001.44
2021-12-02 23:05:00,,0825.6,4.99,0.00,29.4,27.4,00.0,38.5,31.1,08.6,0000.0,0010.09,0002.59,0001.44
2021-12-02 23:06:00,,0825.8,5.00,0.00,29.5,27.8,00.0,38.5,31.2,08.6,0000.0,0010.71,0002.60,0001.43
2021-12-02 23:07:00,,0825.6,5.02,0.00,29.5,28.1,00.0,38.5,31.3,08.6,0000.0,0010.52,0002.74,0001.44
2021-12-02 23:08:00,,0825.6,5.00,0.00,29.5,28.3,00.0,38.5,31.4,08.6,0000.0,0011.05,0002.85,0001.45
2021-12-02 23:09:00,,0825.6,4.99,0.00,29.6,28.5,00.0,38.5,31.4,08.5,0000.0,0012.35,0002.93,0001.45
2021-12-02 23:10:00,,0825.6,5.01,0.00,29.6,28.7,00.0,38.5,31.5,08.5,0000.0,0011.87,0002.94,0001.46
2021-12-02 23:11:00,,0825.6,5.00,0.00,29.7,28.8,00.0,38.5,31.5,08.5,0000.0,0011.64,0003.04,0001.48
2021-12-02 23:12:00,,0825.6,5.01,0.00,29.7,29.0,00.0,38.6,31.6,08.4,0000.0,0012.22,0003.11,0001.51
2021-12-02 23:13:00,,0825.7,4.99,0.00,29.8,29.1,00.0,38.6,31.7,08.4,0000.0,0012.75,0003.08,0001.51
2021-12-02 23:14:00,,0825.6,5.01,0.00,29.8,29.2,00.0,38.6,31.7,08.3,0000.0,0013.18,0003.10,0001.52
2021-12-02 23:15:00,,0825.6,4.99,0.00,29.9,28.9,00.0,38.7,31.7,08.3,0000.0,0013.52,0003.12,0001.53
2021-12-02 23:16:00,,0825.6,5.00,0.00,29.8,26.8,00.0,38.6,31.1,08.4,0000.0,0013.64,0003.14,0001.54
2021-12-02 23:17:00,,0825.6,5.01,0.00,29.6,25.3,00.0,38.6,30.8,08.4,0000.0,0014.08,0003.15,0001.56
2021-12-02 23:18:00,,0825.6,4.99,0.00,29.5,25.5,00.0,38.6,30.8,08.5,0000.0,0013.85,0003.08,0001.56
2021-12-02 23:19:00,,0825.6,5.00,0.00,29.4,26.0,00.0,38.5,30.8,08.5,0000.0,0013.47,0003.06,0001.59
2021-12-02 23:20:00,,0825.6,5.00,0.00,29.4,26.6,00.0,38.5,30.9,08.5,0000.0,0011.94,0003.01,0001.60
2021-12-02 23:21:00,,0825.6,5.00,0.00,29.4,27.0,00.0,38.4,31.0,08.6,0000.0,0011.55,0002.97,0001.61
2021-12-02 23:22:00,,0825.6,4.99,0.00,29.4,27.4,00.0,38.4,31.1,08.7,0000.0,0013.40,0002.93,0001.62
2021-12-02 23:23:00,,0825.5,4.99,0.00,29.4,27.8,00.0,38.4,31.1,08.6,0000.0,0013.81,0002.96,0001.61
2021-12-02 23:24:00,,0825.6,5.01,0.00,29.4,28.0,00.0,38.4,31.2,08.6,0000.0,0014.19,0003.05,0001.62
2021-12-02 23:25:00,,0825.5,5.00,0.00,29.5,28.3,00.0,38.4,31.3,08.5,0000.0,0013.77,0003.06,0001.62
2021-12-02 23:26:00,,0825.6,5.00,0.00,29.5,28.4,00.0,38.4,31.3,08.6,0000.0,0013.53,0003.09,0001.63
2021-12-02 23:27:00,,0825.6,5.00,0.00,29.6,28.6,00.0,38.5,31.4,08.7,0000.0,0014.08,0003.05,0001.63
2021-12-02 23:28:00,,0825.6,4.99,0.00,29.6,28.7,00.0,38.5,31.5,08.7,0000.0,0014.37,0003.04,0001.61
2021-12-02 23:29:00,,0825.6,5.01,0.00,29.7,28.8,00.0,38.5,31.5,08.7,0000.0,0015.08,0003.12,0001.61
2021-12-02 23:30:00,,0825.6,4.99,0.00,29.7,28.9,00.0,38.5,31.5,08.8,0000.0,0016.00,0003.17,0001.59
2021-12-02 23:31:00,,0825.6,5.00,0.00,29.7,29.0,00.0,38.6,31.6,08.8,0000.0,0018.01,0003.30,0001.57
2021-12-02 23:32:00,,0825.6,5.01,0.00,29.8,29.1,00.0,38.6,31.7,08.8,0000.0,0019.07,0003.39,0001.54
2021-12-02 23:33:00,,0825.6,5.00,0.00,29.8,29.2,00.0,38.6,31.7,08.7,0000.0,0018.77,0003.51,0001.52
2021-12-02 23:34:00,,0825.5,5.00,0.00,29.9,29.2,00.0,38.7,31.7,08.7,0000.0,0019.19,0003.58,0001.50
2021-12-02 23:35:00,,0825.5,4.98,0.00,29.9,29.3,00.0,38.7,31.8,08.7,0000.0,0019.52,0003.60,0001.48
2021-12-02 23:36:00,,0825.5,5.01,0.00,30.0,29.3,00.0,38.7,31.8,08.6,0000.0,0020.11,0003.66,0001.46
2021-12-02 23:37:00,,0825.5,5.01,0.00,30.0,29.3,00.0,38.8,31.9,08.5,0000.0,0020.60,0003.69,0001.42
2021-12-02 23:38:00,,0825.5,4.98,0.00,30.0,27.9,00.0,38.8,31.5,08.5,0000.0,0020.63,0003.69,0001.39
2021-12-02 23:39:00,,0825.5,5.02,0.00,29.8,26.4,00.0,38.8,31.2,08.5,0000.0,0020.28,0003.69,0001.38
2021-12-02 23:40:00,,0825.5,5.00,0.00,29.7,26.4,00.0,38.7,31.1,08.6,0000.0,0021.27,0003.68,0001.35
2021-12-02 23:41:00,,0825.5,4.99,0.00,29.6,26.8,00.0,38.7,31.1,08.6,0000.0,0021.45,0003.67,0001.33
2021-12-02 23:42:00,,0825.5,5.01,0.00,29.6,27.2,00.0,38.7,31.2,08.6,0000.0,0020.13,0003.62,0001.34
2021-12-02 23:43:00,,0825.5,4.99,0.00,29.6,27.6,00.0,38.7,31.3,08.7,0000.0,0020.22,0003.61,0001.34
2021-12-02 23:44:00,,0825.5,5.00,0.00,29.6,27.9,00.0,38.7,31.3,08.7,0000.0,0019.10,0003.49,0001.32
2021-12-02 23:45:00,,0825.5,5.01,0.00,29.7,28.2,00.0,38.7,31.4,08.7,0000.0,0018.42,0003.39,0001.31
2021-12-02 23:46:00,,0825.5,4.98,0.00,29.7,28.4,00.0,38.7,31.4,08.6,0000.0,0018.81,0003.42,0001.30
2021-12-02 23:47:00,,0825.5,5.01,0.00,29.7,28.6,00.0,38.7,31.5,08.6,0000.0,0019.59,0003.39,0001.30
2021-12-02 23:48:00,,0825.5,5.00,0.00,29.8,28.7,00.0,38.7,31.5,08.6,0000.0,0019.17,0003.40,0001.32
2021-12-02 23:49:00,,0825.5,5.00,0.00,29.8,28.8,00.0,38.7,31.6,08.5,0000.0,0019.70,0003.44,0001.35
2021-12-02 23:50:00,,0825.6,5.00,0.00,29.8,28.9,00.0,38.7,31.6,08.5,0000.0,0019.55,0003.45,0001.35
2021-12-02 23:51:00,,0825.6,5.00,0.00,29.9,29.0,00.0,38.7,31.7,08.5,0000.0,0019.54,0003.44,0001.35
2021-12-02 23:52:00,,0825.5,5.00,0.00,29.9,29.1,00.0,38.8,31.7,08.5,0000.0,0019.66,0003.41,0001.36
2021-12-02 23:53:00,,0825.5,5.00,0.00,29.9,29.1,00.0,38.8,31.7,08.4,0000.0,0019.30,0003.38,0001.36
2021-12-02 23:54:00,,0825.5,4.99,0.00,30.0,29.2,00.0,38.8,31.8,08.4,0000.0,0018.27,0003.32,0001.38
2021-12-02 23:55:00,,0825.5,5.00,0.00,30.0,29.3,00.0,38.8,31.9,08.4,0000.0,0018.69,0003.34,0001.40
2021-12-02 23:56:00,,0825.5,4.99,0.00,30.0,29.3,00.0,38.9,31.9,08.4,0000.0,0018.47,0003.36,0001.44
2021-12-02 23:57:00,,0825.5,4.98,0.00,30.1,29.3,00.0,38.9,31.9,08.4,0000.0,0017.34,0003.30,0001.45
2021-12-02 23:58:00,,0825.5,5.01,0.00,30.1,29.2,00.0,38.9,31.9,08.3,0000.0,0016.34,0003.28,0001.47
2021-12-02 23:59:00,,0825.4,5.00,0.00,30.0,27.2,00.0,38.9,31.4,08.3,0000.0,0016.56,0003.26,0001.48
